GalileoSat-25

operational
NORAD ID: 43564 Int'l Des: 2018-060 Owner: GSAEU Country: I-EU Constellation: Galileo
MEOCIRCULAR

About GalileoSat-25

Description loading...

Live Position

Loading 3D Globe...

Upcoming Passes

Altitude History

Altitude vs Time

uPlot chart will show altitude changes over time

Two-Line Element Set

1 43564U 18060A 25298.43091471 -.00000077 00000-0 00000+0 0 9996
2 43564 57.2387 348.1243 0005905 271.0382 88.9612 1.70476209 45169
Epoch: Oct 25, 2025 • Age: 17 hours

Current Status

Altitude 23245.7 km
Velocity 3.67 km/s
Sub-Earth Point 52.48°N, 37.48°W
Launch Date Jul 25, 2018
Age 7.2 years
Type navigation

Technical Details

Classification Payload
Mass 715.00 kg
Dry Mass 700.00 kg
Total Mass 715.00 kg
Length 2.70 m
Diameter 1.60 m
Span 14.70 m
Shape Box+2 pan
Manufacturer OHB
Bus Type GalileoSat
Phase Status In Orbit
Owner/State GSAEU/I-EU

Large Constellations

Loading constellations...